Tracking 30009 objects as of 7-Dec-2024
HD Live streaming from Space Station
objects crossing your sky now

STARLINK-30578

Track STARLINK-30578 now!
10-day predictions
STARLINK-30578 is classified as:


NORAD ID: 58093
Int'l Code: 2023-160U
Perigee: 565.6 km
Apogee: 566.8 km
Inclination: 43.0 °
Period: 95.8 minutes
Semi major axis: 6937 km
RCS: Unknown
Launch date: October 18, 2023
Source: United States (US)
Launch site: AIR FORCE EASTERN TEST RANGE (AFETR)
Your satellite tracking list
Your tracking list is empty




NASA's NSSDC Master Catalog

Two Line Element Set (TLE):
1 58093U 23160U   24341.91504711  .00000517  00000-0  53317-4 0  9995
2 58093  43.0030  47.9292 0000855 275.2845  84.7900 15.02534149 64058
Source of the keplerian elements: AFSPC